EHI
0 0 0 0 0 0 0 0 0 0 0 0 0 0 0 0 0 0 0 0 0 0 0 0 0 0 0 0 0 0 0 0 0 0 0 0 0 0
0 0 0 0 0 0 0 0 0 0 0 0 0 0 0 0 0 0 0 0 0 0 0 0 0 0 0 0 0 0 0 0 0 0 0 0 0 0
0 0 0 0 0 0 0 0 0 0 0 0 0 0 0 0 0 0 0 0 0 0 0 0 0 0 0 0 0 0 0 0 0 0 0 0 0 0
0 0 0 0 0 0 0 0 0 0 0 0 0 0 0 0 0 0 0 0 0 0 0 0 0 0 0 0 0 0 0 0 0 0 0 0 0 0
0 0 0 0 0 0 0 0 0 0 0 0 0 0 0 0 0 0 0 0 0 0 0 0 0 0 0 0 0 0 0 0 0 0 0 0 0 0
0 0 0 0 0 0 0 0 0 0 0 0 0 0 0 0 0 0 0 0 0 0 0 0 0 0 0 0 0 0 0 0 0 0 0 0 0 0
0 0 0 0 0 0 0 0 0 0 0 0 0 0 0 0 0 0 0 0 0 0 0 0 0 0 0 0 0 0 0 0 0 0 0 0 0 0
0 0 0 0 0 0 0 0 0 0 0 0 0 0 0 0 0 0 0 0 0 0 0 0 0 0 0 0 0 0 0 0 0 0 0 0 0 0
0 0 0 0 0 0 0 0 0 0 0 0 0 0 0 0 0 0 0 0 0 0 0 0 0 0 0 0 0 0 0 0 0 0 0 0 0 0
0 0 0 0 0 0 0 0 0 0 0 0 0 0 0 0 0 0 0 0 0 0 0 0 0 0 0 0 0 0 0 0 0 0 0 0 0 0
0 0 0 0 0 0 0 0 0 0 0 0 0 0 0 0 0 0 0 0 0 0 0 0 0 0 0 0 0 0 0 0 0 0 0 0 0 0
0 0 0 0 0 0 0 0 0 0 0 0 0 0 0 0 0 0 0 0 0 0 0 0 0 0 0 0 0 0 0 0 0 0 0 0 0 0
0 0 0 0 0 0 0 0 0 0 0 0 0 0 0 0 0 0 0 0 0 0 0 0 0 0 0 0 0 0 0 0 0 0 0 0 0 0
0 0 0 0 0 0 0 0 0 0 0 0 0 0 0 0 0 0 0 0 0 0 0 0 0 0 0 0 0 0 0 0 0 0 0 0 0 0
0 0 0 0 0 0 0 0 0 0 0 0 0 0 0 0 0 0 0 0 0 0 0 0 0 0 0 0 0 0 0 0 0 0 0 0 0 0
0 0 0 0 0 0 0 0 0 0 0 0 0 0 0 0 0 0 0 0 0 0 0 0 0 0 0 0 0 0 0 0 0 0 0 0 0 0
0 0 0 0 0 0 0 0 0 0 0 0 0 0 0 0 0 0 0 0 0 0 0 0 0 0 0 0 0 0 0 0 0 0 0 0 0 0
0 0 0 0 0 0 0 0 0 0 0 0 0 0 0 0 0 0 0 0 0 0 0 0 0 0 0 0 0 0 0 0 0 0 0 0 0 0
0 0 0 0 0 0 0 0 0 0 0 0 0 0 0 0 0 0 0 0 0 0 0 0 0 0 0 0 0 0 0 0 0 0 0 0 0 0
0 0 0 0 0 0 0 0 0 0 0 0 0 0 0 0 0 0 0 0 0 0 0 0 0 0 0 0 0 0 0 0 0 0 0 0 0 0
0 0 0 0 0 0 0 0 0 0 0 0 0 0 0 0 0 0 0 0 0 0 0 0 0 0 0 0 0 0 0 0 0 0 0 0 0 0
0 0 0 0 0 0 0 0 0 0 0 0 0 0 0 0 0 0 0 0 0 0 0 0 0 0 0 0 0 0 0 0 0 0 0 0 0 0
0 0 0 0 0 0 0 0 0 0 0 0 0 0 0 0 0 0 0 0 0 0 0 0 0 0 0 0 0 0 0 0 0 0 0 0 0 0
Wind_Speed
2 1 0 0 0 0 0 1 1 3 4 3 3 4 5 5 10 7 8 14 17 18 18 18 18 19 19 19 19 19 20 20 21 21 22 23 24 24
1 1 0 0 1 1 1 1 1 2 4 4 4 6 7 7 11 8 8 16 16 17 18 18 18 19 19 19 19 19 20 20 21 22 22 23 24 24
1 1 0 0 0 1 1 1 1 1 4 5 4 5 7 8 8 7 7 7 8 16 18 18 18 18 18 19 19 19 20 20 21 21 22 23 24 24
1 1 0 0 1 1 1 1 2 2 3 6 5 5 7 8 8 8 8 8 7 14 17 17 18 18 18 19 19 19 19 20 21 21 22 23 23 24
2 1 1 0 1 1 1 2 2 3 2 3 5 5 5 6 7 8 8 6 8 11 14 15 17 18 18 18 19 19 19 20 20 21 21 22 22 23
1 1 1 1 2 2 2 2 2 3 3 3 5 6 5 6 6 7 8 7 7 8 10 12 15 17 17 18 18 18 19 20 20 21 21 21 21 22
0 0 1 1 2 2 2 2 2 2 3 3 5 6 6 6 7 6 8 8 7 4 6 8 8 7 9 13 15 18 19 20 20 20 20 21 21 21
1 0 1 1 3 4 5 4 4 3 3 3 4 6 7 7 6 7 7 8 7 4 7 9 6 7 7 6 14 19 19 19 20 20 20 20 20 21
1 0 1 2 3 2 3 5 5 6 6 4 5 6 7 7 7 8 7 8 8 7 6 7 5 7 7 9 16 17 18 19 20 20 21 21 20 20
0 0 0 2 2 2 2 3 3 4 6 4 4 5 6 6 6 6 7 8 7 5 4 5 5 6 8 7 13 16 18 19 20 20 21 21 20 19
0 0 1 1 3 4 2 3 4 5 7 8 8 8 10 11 9 5 6 7 8 6 2 4 5 7 7 5 8 14 17 18 19 20 20 21 20 18
1 1 2 3 4 4 2 2 4 5 5 6 7 8 7 7 9 5 4 6 6 6 3 4 5 6 7 4 5 7 9 14 18 18 19 20 20 12
0 1 2 4 4 5 4 2 4 5 4 4 4 5 5 4 5 4 4 4 5 5 5 5 5 4 5 7 6 6 6 7 8 10 14 18 20 15
0 1 2 4 5 6 4 5 7 6 3 3 4 4 5 5 5 6 6 5 5 7 7 5 4 5 6 7 7 7 6 6 6 7 7 13 14 16
0 2 3 4 5 4 5 6 5 3 3 4 4 5 5 5 5 5 5 5 6 6 5 5 5 5 5 6 6 7 7 6 6 7 8 8 7 8
1 2 3 4 4 4 4 4 3 3 3 3 4 4 4 4 4 5 5 6 6 5 5 5 5 5 5 6 6 7 6 6 7 8 7 7 6 6
1 1 1 2 2 3 3 3 3 3 4 4 4 4 5 5 5 5 4 5 5 6 7 6 5 5 5 5 5 5 6 6 6 7 7 7 6 6
2 1 1 2 2 3 3 4 3 4 4 4 4 4 4 5 5 5 4 4 5 6 6 6 7 7 4 3 3 4 5 5 6 7 6 6 7 7
2 1 1 1 2 3 3 3 4 4 4 4 4 4 4 4 5 5 5 5 5 6 6 5 5 5 7 7 5 4 5 6 6 6 6 5 6 7
1 0 1 2 2 3 3 3 4 4 4 4 4 4 4 4 4 5 5 5 5 6 6 5 4 5 5 5 5 6 8 6 5 6 6 5 4 6
0 1 1 2 2 3 3 3 4 4 4 4 4 4 4 4 4 5 5 7 6 5 6 6 6 9 5 3 4 5 6 7 7 5 6 5 5 5
1 1 2 2 3 3 3 3 3 3 4 4 4 4 4 4 4 5 5 5 5 5 5 5 5 5 4 4 5 6 7 8 8 9 7 5 3 4
2 2 2 3 3 3 3 3 4 3 3 3 4 4 4 4 4 4 4 4 4 5 5 5 5 4 4 4 4 5 7 7 6 7 7 10 9 7
Wind_Direction
147 143 150 268 283 266 234 197 232 300 298 290 307 315 326 323 325 326 322 324 331 332 330 329 329 329 329 329 328 327 326 324 323 322 321 320 319 317
137 119 67 294 319 321 296 293 240 247 277 286 295 310 321 323 325 325 317 326 328 330 330 331 330 330 330 330 329 327 326 325 325 324 323 321 320 319
97 107 313 312 320 316 325 314 288 263 276 293 299 313 317 319 322 321 318 317 319 328 329 330 329 330 330 330 329 329 328 327 326 325 324 322 323 321
161 148 266 335 330 316 306 292 288 277 274 297 310 317 315 315 318 321 325 325 319 323 328 329 329 330 331 331 331 331 330 329 328 327 325 324 325 324
178 184 225 253 299 298 293 290 291 304 296 296 308 313 311 316 324 322 320 318 320 322 327 329 329 330 331 331 332 332 332 331 330 328 327 326 327 327
183 195 223 234 247 264 283 292 301 309 313 311 313 316 314 318 324 326 327 328 323 321 326 327 326 328 329 330 331 332 332 332 332 331 330 330 329 329
145 247 264 303 313 312 320 310 314 316 318 318 316 319 321 328 328 322 321 321 316 310 322 318 318 317 323 326 329 331 333 334 335 334 333 333 333 332
154 330 314 323 329 336 335 336 335 324 313 309 311 313 312 316 317 321 322 325 321 320 322 312 312 312 317 319 326 330 334 337 338 337 336 335 335 336
159 165 340 335 340 312 327 342 338 333 326 309 297 300 304 309 315 319 319 316 304 305 314 302 306 310 315 319 325 330 335 338 338 338 338 338 338 339
138 171 259 306 314 336 345 340 325 322 319 314 292 296 305 308 305 305 305 309 298 294 294 293 305 310 313 312 319 329 335 338 339 339 341 342 341 340
32 27 356 302 325 353 357 331 327 324 331 329 324 324 326 329 330 328 327 325 319 313 312 304 307 312 304 299 313 326 333 337 339 341 342 344 344 342
23 353 339 337 341 353 346 324 323 320 327 331 333 333 330 327 333 328 314 316 316 310 316 321 310 324 316 301 309 322 329 332 337 339 342 345 346 343
34 332 317 338 345 346 347 324 319 328 324 324 325 325 328 329 326 323 311 302 304 296 303 317 306 310 297 305 309 315 326 328 330 332 338 343 345 347
182 296 318 348 350 348 349 347 347 348 336 333 334 331 332 330 326 322 315 305 288 283 290 297 292 302 308 307 307 315 324 327 331 331 333 337 342 344
20 344 353 357 355 352 357 357 358 350 339 337 330 324 320 316 317 320 318 316 310 300 298 295 296 299 298 297 302 310 317 323 332 336 336 338 338 339
32 30 22 18 10 357 357 357 353 339 336 324 320 318 319 324 324 326 324 328 327 322 314 312 307 306 306 298 295 306 317 320 329 332 332 333 339 343
58 45 20 9 5 357 353 350 346 343 339 331 328 327 327 328 325 326 323 325 326 326 330 331 322 304 287 292 301 311 321 324 324 329 333 337 340 344
69 58 18 0 347 339 338 338 335 334 329 325 327 326 325 326 325 327 328 330 328 328 328 330 333 335 332 318 291 305 323 325 327 333 335 335 339 344
74 61 358 333 328 326 325 324 322 323 324 323 324 324 323 322 323 326 330 332 330 327 325 327 333 341 343 340 330 333 329 325 329 333 337 337 333 333
68 22 319 315 314 313 314 317 318 321 323 322 321 322 321 318 321 324 326 329 328 328 330 333 337 337 329 317 311 316 328 325 326 329 330 328 325 320
336 309 301 300 299 302 306 309 312 313 316 317 317 318 317 317 320 321 322 327 331 329 330 329 322 323 316 318 323 331 339 344 339 328 328 333 340 353
285 289 291 290 292 294 299 304 308 311 314 312 312 314 314 312 315 319 323 325 326 324 322 322 328 339 351 350 342 333 335 341 349 354 356 357 350 353
278 280 284 287 288 291 294 298 302 303 304 305 308 312 313 315 316 317 319 319 322 328 334 338 343 348 347 344 344 341 343 347 353 2 6 6 7 359